Date String (YYYY-MM-DD hh:mm:ss) UTC,Instrument flags,Ambient pressure (hPa),Sample flow (lpm),Bypass flow (lpm),Sample temperature (°C),Ambient temperature (°C),ASC tube jacket temperature (°C),LED temperature (°C),Box temperature (°C),Sample RH (%),Span deviation,Mass concentration (μg/m³),Mass concentration (μg/m³),Mass concentration (μg/m³)
DateTimeUTC,F1_M11,P_M11,Q1_M11,Q2_M11,T1_M11,T2_M11,T3_M11,T4_M11,T5_M11,U1_M11,ZSPAN_M11,X0_M11,X2_M11,X1_M11
2022-06-09 21:00:00,,0823.7,5.00,0.00,29.5,27.4,00.0,38.3,31.2,19.7,0000.0,0013.52,0004.43,0002.42
2022-06-09 21:01:00,,0823.7,5.00,0.00,29.5,27.5,00.0,38.3,31.2,18.3,0000.0,0012.17,0004.32,0002.41
2022-06-09 21:02:00,,0823.7,5.01,0.00,29.4,27.6,00.0,38.3,31.2,18.5,0000.0,0012.07,0004.27,0002.42
2022-06-09 21:03:00,,0823.7,5.01,0.00,29.4,27.8,00.0,38.3,31.3,18.6,0000.0,0012.13,0004.29,0002.42
2022-06-09 21:04:00,,0823.7,5.00,0.00,29.5,28.0,00.0,38.3,31.3,18.6,0000.0,0011.32,0004.23,0002.43
2022-06-09 21:05:00,,0823.7,5.00,0.00,29.5,28.2,00.0,38.3,31.4,19.8,0000.0,0012.10,0004.20,0002.41
2022-06-09 21:06:00,,0823.8,5.00,0.00,29.5,28.3,00.0,38.3,31.4,19.7,0000.0,0013.33,0004.22,0002.40
2022-06-09 21:07:00,,0823.9,5.00,0.00,29.5,28.5,00.0,38.3,31.5,17.8,0000.0,0013.51,0004.28,0002.40
2022-06-09 21:08:00,,0823.9,5.02,0.00,29.6,28.5,00.0,38.3,31.5,18.1,0000.0,0012.97,0004.27,0002.42
2022-06-09 21:09:00,,0823.9,5.00,0.00,29.6,27.9,00.0,38.3,31.3,21.5,0000.0,0013.17,0004.32,0002.42
2022-06-09 21:10:00,,0823.9,4.99,0.00,29.5,27.3,00.0,38.2,31.1,21.3,0000.0,0013.96,0004.34,0002.41
2022-06-09 21:11:00,,0823.8,5.00,0.00,29.4,27.3,00.0,38.2,31.1,21.0,0000.0,0014.42,0004.38,0002.43
2022-06-09 21:12:00,,0823.8,4.99,0.00,29.4,27.3,00.0,38.2,31.1,21.1,0000.0,0014.64,0004.47,0002.43
2022-06-09 21:13:00,,0823.8,5.01,0.00,29.3,27.5,00.0,38.2,31.2,19.4,0000.0,0014.19,0004.47,0002.42
2022-06-09 21:14:00,,0823.8,4.99,0.00,29.3,27.7,00.0,38.2,31.2,20.1,0000.0,0013.95,0004.44,0002.44
2022-06-09 21:15:00,,0823.8,5.00,0.00,29.4,27.9,00.0,38.2,31.3,19.1,0000.0,0014.06,0004.54,0002.46
2022-06-09 21:16:00,,0823.8,4.98,0.00,29.4,28.1,00.0,38.2,31.3,18.9,0000.0,0013.37,0004.58,0002.49
2022-06-09 21:17:00,,0823.8,4.99,0.00,29.4,28.2,00.0,38.2,31.4,18.5,0000.0,0012.10,0004.62,0002.53
2022-06-09 21:18:00,,0823.8,5.01,0.00,29.5,28.4,00.0,38.2,31.4,18.7,0000.0,0011.62,0004.58,0002.56
2022-06-09 21:19:00,,0823.7,5.00,0.00,29.5,28.5,00.0,38.3,31.5,17.5,0000.0,0011.82,0004.65,0002.59
2022-06-09 21:20:00,,0823.7,5.00,0.00,29.5,28.1,00.0,38.2,31.4,15.5,0000.0,0011.97,0004.70,0002.62
2022-06-09 21:21:00,,0823.7,5.00,0.00,29.4,27.5,00.0,38.1,31.2,16.3,0000.0,0011.66,0004.74,0002.65
2022-06-09 21:22:00,,0823.7,4.99,0.00,29.4,27.4,00.0,38.1,31.1,18.2,0000.0,0011.62,0004.73,0002.66
2022-06-09 21:23:00,,0823.6,5.01,0.00,29.4,27.4,00.0,38.1,31.1,19.1,0000.0,0011.83,0004.74,0002.69
2022-06-09 21:24:00,,0823.7,5.01,0.00,29.3,27.5,00.0,38.1,31.1,18.5,0000.0,0012.07,0004.81,0002.72
2022-06-09 21:25:00,,0823.7,4.98,0.00,29.3,27.7,00.0,38.1,31.2,18.1,0000.0,0012.38,0004.82,0002.72
2022-06-09 21:26:00,,0823.6,5.01,0.00,29.3,27.9,00.0,38.2,31.2,15.7,0000.0,0012.54,0004.77,0002.72
2022-06-09 21:27:00,,0823.6,5.00,0.00,29.4,28.0,00.0,38.2,31.3,15.8,0000.0,0012.86,0004.78,0002.75
2022-06-09 21:28:00,,0823.6,5.00,0.00,29.4,28.2,00.0,38.2,31.3,19.0,0000.0,0012.91,0004.76,0002.75
2022-06-09 21:29:00,,0823.5,5.00,0.00,29.4,28.4,00.0,38.2,31.4,18.4,0000.0,0013.05,0004.79,0002.76
2022-06-09 21:30:00,,0823.5,4.99,0.00,29.5,28.4,00.0,38.2,31.4,15.7,0000.0,0013.26,0004.77,0002.77
2022-06-09 21:31:00,,0823.5,5.00,0.00,29.4,27.8,00.0,38.1,31.3,15.8,0000.0,0013.62,0004.76,0002.78
2022-06-09 21:32:00,,0823.5,5.01,0.00,29.4,27.3,00.0,38.1,31.1,15.2,0000.0,0013.55,0004.73,0002.78
2022-06-09 21:33:00,,0823.6,4.99,0.00,29.3,27.2,00.0,38.1,31.1,14.9,0000.0,0013.03,0004.72,0002.77
2022-06-09 21:34:00,,0823.6,5.00,0.00,29.3,27.3,00.0,38.1,31.1,14.7,0000.0,0012.87,0004.71,0002.76
2022-06-09 21:35:00,,0823.6,4.99,0.00,29.3,27.5,00.0,38.1,31.1,16.6,0000.0,0013.35,0004.71,0002.78
2022-06-09 21:36:00,,0823.6,5.00,0.00,29.3,27.7,00.0,38.1,31.1,15.7,0000.0,0013.21,0004.73,0002.78
2022-06-09 21:37:00,,0823.6,5.00,0.00,29.3,27.9,00.0,38.1,31.2,15.7,0000.0,0013.31,0004.72,0002.78
2022-06-09 21:38:00,,0823.6,5.00,0.00,29.3,28.0,00.0,38.1,31.3,15.8,0000.0,0013.40,0004.69,0002.78
2022-06-09 21:39:00,,0823.6,5.00,0.00,29.3,28.2,00.0,38.1,31.3,16.6,0000.0,0014.00,0004.73,0002.79
2022-06-09 21:40:00,,0823.5,5.00,0.00,29.4,28.4,00.0,38.1,31.4,16.4,0000.0,0014.12,0004.77,0002.81
2022-06-09 21:41:00,,0823.4,5.00,0.00,29.4,28.2,00.0,38.1,31.3,15.3,0000.0,0014.20,0004.80,0002.81
2022-06-09 21:42:00,,0823.4,5.01,0.00,29.4,27.5,00.0,38.1,31.1,15.0,0000.0,0014.07,0004.80,0002.81
2022-06-09 21:43:00,,0823.5,5.01,0.00,29.3,27.2,00.0,38.0,31.0,16.4,0000.0,0014.11,0004.82,0002.85
2022-06-09 21:44:00,,0823.5,4.99,0.00,29.2,27.2,00.0,38.0,31.0,17.2,0000.0,0014.34,0004.84,0002.87
2022-06-09 21:45:00,,0823.4,4.99,0.00,29.2,27.3,00.0,38.0,30.9,17.3,0000.0,0014.40,0004.81,0002.88
2022-06-09 21:46:00,,0823.4,5.00,0.00,29.2,27.5,00.0,38.0,31.0,16.9,0000.0,0013.95,0004.78,0002.86
2022-06-09 21:47:00,,0823.4,5.00,0.00,29.2,27.7,00.0,38.0,31.0,14.6,0000.0,0014.60,0004.79,0002.88
2022-06-09 21:48:00,,0823.6,5.00,0.00,29.2,27.9,00.0,38.0,31.1,13.9,0000.0,0014.91,0004.85,0002.91
2022-06-09 21:49:00,,0823.7,4.99,0.00,29.2,28.1,00.0,38.1,31.2,14.6,0000.0,0015.42,0004.93,0002.91
2022-06-09 21:50:00,,0823.7,5.00,0.00,29.3,28.2,00.0,38.1,31.2,15.1,0000.0,0014.81,0004.86,0002.87
2022-06-09 21:51:00,,0823.7,5.00,0.00,29.3,28.4,00.0,38.1,31.3,15.7,0000.0,0014.52,0004.84,0002.87
2022-06-09 21:52:00,,0823.7,5.00,0.00,29.4,28.5,00.0,38.1,31.3,15.4,0000.0,0014.04,0004.82,0002.86
2022-06-09 21:53:00,,0823.7,5.01,0.00,29.4,28.1,00.0,38.1,31.3,16.7,0000.0,0013.76,0004.78,0002.86
2022-06-09 21:54:00,,0823.7,5.00,0.00,29.3,27.5,00.0,38.0,31.1,17.4,0000.0,0014.16,0004.80,0002.83
2022-06-09 21:55:00,,0823.7,5.00,0.00,29.3,27.3,00.0,38.0,31.0,17.1,0000.0,0015.02,0004.81,0002.82
2022-06-09 21:56:00,,0823.7,5.00,0.00,29.2,27.4,00.0,38.0,31.0,18.4,0000.0,0015.05,0004.75,0002.81
2022-06-09 21:57:00,,0823.7,5.01,0.00,29.2,27.5,00.0,38.0,31.0,16.8,0000.0,0015.63,0004.72,0002.80
2022-06-09 21:58:00,,0823.7,5.00,0.00,29.2,27.7,00.0,38.0,31.0,16.8,0000.0,0014.97,0004.78,0002.82
2022-06-09 21:59:00,,0823.7,5.00,0.00,29.2,27.9,00.0,38.0,31.1,15.8,0000.0,0014.26,0004.76,0002.82
